FW8355 Weather Reports


Display with metric or nautical units.
time (UTC)temp
F
wind
direction
speed
MPH
gust
MPH
rain 1hr
in
rain 24hr
in
rain mn
in
humidity
%
barometer
mb
20240617092516 84 203 2.0 5.0 0.00 0.00 0.00 59 1014.4
20240617091516 84 203 3.0 9.0 0.00 0.00 0.00 60 1014.3
20240617090516 84 23 1.0 3.0 0.00 0.00 0.00 62 1014.4
20240617085516 83 203 3.0 6.0 0.00 0.00 0.00 62 1014.4
20240617084516 83 270 1.0 5.0 0.00 0.00 0.00 62 1014.5
20240617083516 82 270 1.0 3.0 0.00 0.00 0.00 63 1014.6
20240617082516 81 248 1.0 4.0 0.00 0.00 0.00 64 1014.6
20240617081516 82 248 1.0 5.0 0.00 0.00 0.00 65 1014.7
20240617080516 82 180 2.0 7.0 0.00 0.00 0.00 64 1014.7
20240617075516 81 225 3.0 7.0 0.00 0.00 0.00 66 1014.7
20240617074515 80 113 3.0 6.0 0.00 0.00 0.00 68 1014.6
20240617073515 79 203 2.0 6.0 0.00 0.00 0.00 70 1014.6
20240617072516 79 248 1.0 3.0 0.00 0.00 0.00 69 1014.7
20240617071515 78 203 3.0 6.0 0.00 0.00 0.00 69 1014.7
20240617070516 80 293 2.0 4.0 0.00 0.00 0.00 68 1014.7
20240617065537 79 225 1.0 4.0 0.00 0.00 0.00 69 1014.7
20240617064538 78 203 2.0 5.0 0.00 0.00 0.00 70 1014.8
20240617063516 78 203 2.0 6.0 0.00 0.00 0.00 70 1014.8
20240617062518 78 180 1.0 3.0 0.00 0.00 0.00 70 1014.7
20240617061518 78 180 1.0 3.0 0.00 0.00 0.00 71 1014.6
20240617060517 76 135 2.0 4.0 0.00 0.00 0.00 73 1014.4
20240617055517 76 113 2.0 5.0 0.00 0.00 0.00 73 1014.5
20240617054518 76 135 1.0 3.0 0.00 0.00 0.00 74 1014.5
20240617053517 75 113 1.0 3.0 0.00 0.00 0.00 75 1014.4
20240617052518 74 113 1.0 4.0 0.00 0.00 0.00 75 1014.4
20240617051517 74 0.0 2.0 0.00 0.00 0.00 76 1014.3
20240617050537 73 0.0 2.0 0.00 0.00 0.00 78 1014.2
20240617045517 73 0.0 0.0 0.00 0.00 0.00 81 1014.1
20240617044537 72 0.0 1.0 0.00 0.00 0.00 83 1014.1
20240617043517 71 0.0 1.0 0.00 0.00 0.00 85 1014.0
20240617042537 70 0.0 0.0 0.00 0.00 0.00 84 1014.0
20240617041517 70 0.0 0.0 0.00 0.00 0.00 84 1014.0
20240617040517 70 0.0 0.0 0.00 0.00 0.00 84 1014.0
20240617035517 70 0.0 1.0 0.00 0.00 0.00 84 1014.0
20240617034537 70 0.0 1.0 0.00 0.00 0.00 85 1014.0
20240617033517 70 0.0 1.0 0.00 0.00 0.00 85 1014.0
20240617032517 69 0.0 1.0 0.00 0.00 0.00 85 1013.9
20240617031517 69 0.0 0.0 0.00 0.00 0.00 85 1013.9
20240617030517 70 0.0 0.0 0.00 0.00 0.00 84 1013.8
20240617025518 70 0.0 0.0 0.00 0.00 0.00 84 1013.9
20240617024517 70 0.0 0.0 0.00 0.00 0.00 84 1014.0
20240617023517 70 0.0 0.0 0.00 0.00 0.00 84 1014.1
20240617022517 70 0.0 1.0 0.00 0.00 0.00 83 1014.0
20240617021517 70 0.0 2.0 0.00 0.00 0.00 83 1014.0
20240617020517 71 203 2.0 4.0 0.00 0.00 0.00 82 1014.0
20240617015517 71 203 1.0 3.0 0.00 0.00 0.00 82 1014.0
20240617014517 71 203 1.0 2.0 0.00 0.00 0.00 81 1014.0
20240617013517 71 203 2.0 4.0 0.00 0.00 0.00 80 1014.0
20240617012517 72 203 2.0 5.0 0.00 0.00 0.00 79 1014.0
20240617011517 73 225 2.0 5.0 0.00 0.00 0.00 79 1014.0
20240617010517 72 270 3.0 9.0 0.00 0.00 0.00 80 1013.9
20240617005517 72 248 1.0 2.0 0.00 0.00 0.00 79 1013.8
20240617004517 71 0.0 4.0 0.00 0.00 0.00 81 1013.8
20240617003537 71 0.0 1.0 0.00 0.00 0.00 81 1013.9
20240617002537 71 0.0 0.0 0.00 0.00 0.00 82 1013.9
20240617001517 70 0.0 0.0 0.00 0.00 0.00 82 1013.9
20240617000517 71 0.0 0.0 0.00 0.00 0.00 81 1013.9
20240616235517 71 0.0 0.0 0.00 0.00 0.00 81 1013.9
20240616234517 71 0.0 0.0 0.00 0.00 0.00 81 1014.1
20240616233537 71 0.0 0.0 0.00 0.00 0.00 81 1014.0
20240616232517 71 0.0 0.0 0.00 0.00 0.00 81 1014.0
20240616231517 71 0.0 1.0 0.00 0.00 0.00 81 1014.0
20240616230517 71 0.0 0.0 0.00 0.00 0.00 81 1013.9
20240616225517 72 0.0 1.0 0.00 0.00 0.00 81 1014.0
20240616224517 72 203 1.0 2.0 0.00 0.00 0.00 81 1014.0
20240616223517 72 0.0 1.0 0.00 0.00 0.00 81 1014.1
20240616222516 72 0.0 1.0 0.00 0.00 0.00 80 1014.1
20240616221517 72 0.0 1.0 0.00 0.00 0.00 80 1014.1
20240616220517 72 0.0 0.0 0.00 0.00 0.00 79 1014.0
20240616215517 72 0.0 0.0 0.00 0.00 0.00 80 1014.0
20240616214517 72 0.0 0.0 0.00 0.00 0.00 80 1013.9
20240616213517 72 0.0 0.0 0.00 0.00 0.00 80 1013.8
20240616212517 72 0.0 3.0 0.00 0.00 0.00 79 1013.8
20240616211517 72 0.0 3.0 0.00 0.00 0.00 79 1013.9
20240616210517 72 0.0 0.0 0.00 0.00 0.00 79 1013.8
20240616205517 72 0.0 2.0 0.00 0.00 0.00 78 1013.8
20240616204517 73 0.0 1.0 0.00 0.00 0.00 78 1013.8
20240616203517 73 0.0 1.0 0.00 0.00 0.00 77 1013.7
20240616202517 73 0.0 2.0 0.00 0.00 0.00 77 1013.7
20240616201517 73 0.0 1.0 0.00 0.00 0.00 77 1013.7
20240616200517 74 270 2.0 4.0 0.00 0.00 0.00 77 1013.5
20240616195517 74 270 1.0 3.0 0.00 0.00 0.00 76 1013.5
20240616194537 74 270 1.0 3.0 0.00 0.00 0.00 77 1013.5
20240616193537 74 270 3.0 6.0 0.00 0.00 0.00 76 1013.4
20240616192517 73 270 1.0 3.0 0.00 0.00 0.00 76 1013.4
20240616191517 73 248 2.0 4.0 0.00 0.00 0.00 75 1013.5
20240616190517 74 203 2.0 5.0 0.00 0.00 0.00 75 1013.5
20240616185517 74 225 2.0 6.0 0.00 0.00 0.00 74 1013.5
20240616184517 74 248 2.0 5.0 0.00 0.00 0.00 73 1013.4
20240616183517 74 225 3.0 7.0 0.00 0.00 0.00 72 1013.3
20240616182517 74 248 2.0 6.0 0.00 0.00 0.00 69 1013.4
20240616181517 74 270 5.0 10.0 0.00 0.00 0.00 68 1013.3
20240616180517 74 270 3.0 8.0 0.00 0.00 0.00 69 1013.3
20240616175537 74 225 2.0 7.0 0.00 0.00 0.00 71 1013.2
20240616174517 74 248 3.0 6.0 0.00 0.00 0.00 70 1013.1
20240616173516 75 270 3.0 8.0 0.00 0.00 0.00 70 1012.9
20240616172516 75 270 3.0 7.0 0.00 0.00 0.00 70 1012.8
20240616171517 75 225 4.0 9.0 0.00 0.00 0.00 70 1012.7
20240616170517 76 225 3.0 7.0 0.00 0.00 0.00 69 1012.6
20240616165518 76 225 3.0 6.0 0.00 0.00 0.00 67 1012.4
20240616164516 77 203 4.0 8.0 0.00 0.00 0.00 63 1012.4
20240616163557 77 248 3.0 9.0 0.00 0.00 0.00 61 1012.4
20240616162517 77 248 2.0 6.0 0.00 0.00 0.00 51 1012.3
20240616161517 77 270 3.0 9.0 0.00 0.00 0.00 52 1012.1
20240616155517 77 270 3.0 6.0 0.00 0.00 0.00 58 1012.1
20240616154517 77 270 3.0 6.0 0.00 0.00 0.00 58 1012.2
20240616153517 77 270 4.0 10.0 0.00 0.00 0.00 58 1012.2
20240616152517 78 270 4.0 9.0 0.00 0.00 0.00 56 1012.2
20240616151517 79 248 5.0 9.0 0.00 0.00 0.00 51 1012.2
20240616150517 80 203 4.0 11.0 0.00 0.00 0.00 46 1012.1
20240616145516 81 225 4.0 13.0 0.00 0.00 0.00 47 1012.1
20240616144516 81 225 7.0 13.0 0.00 0.00 0.00 45 1012.1
20240616143516 82 248 7.0 17.0 0.00 0.00 0.00 43 1011.9
20240616142536 82 203 5.0 10.0 0.00 0.00 0.00 41 1011.6
20240616141517 83 225 7.0 12.0 0.00 0.00 0.00 38 1011.6
20240616140516 84 225 5.0 12.0 0.00 0.00 0.00 38 1011.6
20240616135536 84 203 3.0 11.0 0.00 0.00 0.00 39 1011.6
20240616134516 83 203 5.0 10.0 0.00 0.00 0.00 36 1011.5
20240616133516 84 225 4.0 10.0 0.00 0.00 0.00 34 1011.6
20240616132518 84 248 4.0 9.0 0.00 0.00 0.00 35 1011.5
20240616131516 84 225 4.0 9.0 0.00 0.00 0.00 34 1011.6
20240616130516 83 248 5.0 11.0 0.00 0.00 0.00 34 1011.7
20240616125516 83 225 5.0 11.0 0.00 0.00 0.00 33 1011.6
20240616124516 82 270 6.0 12.0 0.00 0.00 0.00 34 1011.8
20240616123518 83 270 6.0 11.0 0.00 0.00 0.00 32 1011.9
20240616122516 83 248 4.0 10.0 0.00 0.00 0.00 32 1012.2
20240616121517 83 203 5.0 14.0 0.00 0.00 0.00 32 1012.1
20240616120516 83 225 7.0 15.0 0.00 0.00 0.00 34 1012.0
20240616115516 83 225 5.0 11.0 0.00 0.00 0.00 33 1011.9
20240616114516 83 248 5.0 11.0 0.00 0.00 0.00 33 1011.9
20240616113516 83 248 5.0 10.0 0.00 0.00 0.00 31 1011.8
20240616112516 83 225 6.0 14.0 0.00 0.00 0.00 29 1011.7
20240616111516 83 225 6.0 11.0 0.00 0.00 0.00 31 1011.8
20240616110537 83 203 5.0 11.0 0.00 0.00 0.00 31 1011.6
20240616105516 83 225 7.0 14.0 0.00 0.00 0.00 32 1012.0
20240616104536 84 225 5.0 13.0 0.00 0.00 0.00 32 1012.2
20240616103516 84 225 4.0 11.0 0.00 0.00 0.00 33 1012.0
20240616102516 83 203 5.0 10.0 0.00 0.00 0.00 36 1011.7
20240616101516 83 225 5.0 11.0 0.00 0.00 0.00 36 1011.8
20240616100518 83 248 4.0 11.0 0.00 0.00 0.00 37 1011.8
20240616095516 83 225 5.0 12.0 0.00 0.00 0.00 41 1011.7
20240616094516 82 203 5.0 14.0 0.00 0.00 0.00 41 1011.7
20240616093516 82 225 4.0 8.0 0.00 0.00 0.00 40 1011.7